Location: Wellington
(41.3000°S, 174.7830°E)
Time: 03:39:49
(UTC+13:00)

Atlas Centaur 2 - Pass Details

Date: 24 January 2019
Orbit: 459 x 1311 km, 30.4° (Epoch: 21 February)

Event Time Altitude Azimuth Distance (km) Brightness Sun altitude
Rises 22:21:26 0° 293° (WNW) 4,201 6.1 -15.0°
Reaches altitude 10° 22:24:31 10° 300° (WNW) 3,290 5.4 -15.4°
Maximum altitude 22:32:11 39° 4° (N) 1,879 3.6 -16.4°
Enters shadow 22:36:35 23° 54° (NE) 2,424 3.9 -17.0°
